Location: Tamazert
(32.6352°N, 5.2072°W)
Time: 19:13:44
(UTC+00:00)

Vanguard 1 Rocket - Pass Details

Date: 08 October 2022
Orbit: 656 x 4218 km, 34.3° (Epoch: 02 December)

Event Time Altitude Azimuth Distance (km) Brightness Sun altitude
Rises 20:02:56 0° 262° (W) 8,424 13.4 -27.3°
Reaches altitude 10° 20:09:09 10° 263° (W) 7,216 12.8 -28.6°
Maximum altitude 20:32:23 85° 354° (N) 2,765 9.6 -33.4°
Enters shadow 20:36:55 55° 78° (ENE) 2,754 9.3 -34.3°
